Location: Middlebury
(44.0153°N, 73.1678°W)
Time: 04:17:42
(UTC-04:00)

ISS - Visible Passes

Search period start: 22 October 2018 00:00
Search period end: 01 November 2018 00:00
Orbit: 402 x 408 km, 51.6° (Epoch: 22 October)

Date Brightness Start Highest point End Pass type
(mag) Time Alt. Az. Time Alt. Az. Time Alt. Az.
25 Oct -0.9 06:33:13 10° S 06:35:34 18° SE 06:37:55 10° E visible
27 Oct -2.5 06:24:40 10° SSW 06:27:46 41° SE 06:30:54 10° ENE visible
28 Oct -1.6 05:34:10 15° S 05:35:52 23° SE 05:38:31 10° E visible
29 Oct -0.6 04:44:55 12° ESE 04:44:55 12° ESE 04:45:34 10° ESE visible
29 Oct -3.9 06:17:37 17° WSW 06:20:05 88° NNW 06:23:23 10° ENE visible
30 Oct -3.1 05:28:11 51° SE 05:28:11 51° SE 05:31:15 10° ENE visible
31 Oct -0.4 04:38:35 12° E 04:38:35 12° E 04:38:57 10° ENE visible
31 Oct -3.4 06:11:16 30° WNW 06:12:28 45° NNW 06:15:39 10° NE visible
